This demonstration page uses our WeatherBlox Daily Observations layout. Learn more.

Left ArrowRight Arrow

39.51506, -84.39828

Hourly Observations for September 12, 2021

Temp ( °F °C ) Dew Point ( °F °C ) Humidity (%) Winds ( mph kmh ) Pressure ( in mb ) Visibility ( mi km ) Precip ( " mm )
12:15 am 00:15 Clear 72 22.3 64 17.6 75 75 SSW 13 20 30.08 1019 10 16 0.00 0.00
12:35 am 00:35 Clear 72 22.1 64 17.7 76 76 SW 12 19 30.08 1019 10 16 0.00 0.00
12:55 am 00:55 Clear 72 22.2 64 17.7 76 76 SW 12 19 30.08 1019 10 16 0.00 0.00
1:15 am 01:15 Clear 72 22 64 17.8 77 77 SSW 13 20 30.08 1019 10 16 0.00 0.00
1:35 am 01:35 Clear 72 22.1 64 17.9 77 77 SW 10 17 30.09 1019 10 16 0.00 0.00
1:55 am 01:55 Clear 72 22 64 17.9 78 78 SW 12 19 30.10 1019 10 16 0.00 0.00
2:15 am 02:15 Clear 72 22 64 17.9 78 78 SW 13 20 30.10 1019 10 16 0.00 0.00
2:35 am 02:35 Clear 72 22.1 64 18 78 78 SW 13 20 30.10 1019 10 16 0.00 0.00
2:55 am 02:55 Clear 71 21.7 65 18.1 80 80 SW 9 15 30.11 1020 10 16 0.00 0.00
3:15 am 03:15 Clear 70 21.2 65 18.2 83 83 SW 8 13 30.11 1020 10 16 0.00 0.00
3:35 am 03:35 Clear 69 20.8 65 18.3 86 86 SW 10 17 30.11 1020 10 16 0.00 0.00
3:55 am 03:55 Clear 70 20.9 65 18.4 86 86 SW 8 13 30.11 1020 10 16 0.00 0.00
4:15 am 04:15 Clear 69 20.5 65 18.4 88 88 SW 8 13 30.12 1020 10 16 0.00 0.00
4:35 am 04:35 Clear 69 20.3 65 18.3 88 88 SSW 8 13 30.12 1020 10 16 0.00 0.00
4:55 am 04:55 Clear 68 20.1 65 18.3 89 89 SW 8 13 30.12 1020 10 16 0.00 0.00
5:15 am 05:15 Clear 68 19.8 65 18.1 90 90 SSW 10 17 30.13 1020 10 16 0.00 0.00
5:35 am 05:35 Clear 69 20.4 64 17.9 86 86 SW 9 15 30.12 1020 10 16 0.00 0.00
5:55 am 05:55 Clear 68 19.9 64 17.9 88 88 SW 9 15 30.12 1020 10 16 0.00 0.00
6:15 am 06:15 Clear 67 19.7 64 17.8 89 89 SW 10 17 30.13 1020 10 16 0.00 0.00
6:35 am 06:35 Clear 68 20 64 17.8 87 87 SW 9 15 30.13 1020 10 16 0.00 0.00
6:55 am 06:55 Clear 68 20.1 64 17.9 87 87 SW 9 15 30.13 1020 10 16 0.00 0.00
7:15 am 07:15 Clear 68 19.8 64 17.8 88 88 SW 9 15 30.15 1021 10 16 0.00 0.00
7:35 am 07:35 Sunny 67 19.6 64 17.9 90 90 SW 9 15 30.15 1021 10 16 0.00 0.00
7:55 am 07:55 Sunny 68 19.9 64 18 89 89 SW 10 17 30.15 1021 10 16 0.00 0.00
8:15 am 08:15 Sunny 69 20.3 64 18 87 87 SW 12 19 30.15 1021 10 16 0.00 0.00
8:35 am 08:35 Sunny 69 20.8 65 18.1 85 85 SW 10 17 30.15 1021 10 16 0.00 0.00
8:55 am 08:55 Sunny 71 21.4 64 18 81 81 SW 12 19 30.15 1021 10 16 0.00 0.00
9:15 am 09:15 Sunny 72 22 64 17.9 78 78 SW 15 24 30.15 1021 10 16 0.00 0.00
9:35 am 09:35 Sunny 73 22.5 64 17.9 75 75 SW 12 19 30.15 1021 10 16 0.00 0.00
9:55 am 09:55 Sunny 74 23.1 64 17.7 72 72 SW 14 22 30.15 1021 10 16 0.00 0.00
10:15 am 10:15 Sunny 75 23.8 64 17.5 68 68 SW 16 26 30.15 1021 10 16 0.00 0.00
10:35 am 10:35 Sunny 76 24.7 64 17.7 65 65 SW 13 20 30.14 1021 10 16 0.00 0.00
10:55 am 10:55 Sunny 77 25.2 64 17.8 64 64 SW 13 20 30.14 1021 10 16 0.00 0.00
11:15 am 11:15 Sunny 79 26.1 64 17.7 60 60 SW 15 24 30.14 1021 10 16 0.00 0.00
11:35 am 11:35 Sunny 80 26.7 64 17.7 58 58 SW 14 22 30.13 1020 10 16 0.00 0.00
11:55 am 11:55 Sunny 80 26.9 63 17.4 56 56 SW 13 20 30.13 1020 10 16 0.00 0.00
12:15 pm 12:15 Sunny 80 26.4 63 17.2 57 57 SSW 13 20 30.12 1020 10 16 0.00 0.00
12:35 pm 12:35 Sunny 80 26.9 62 16.9 54 54 SSW 14 22 30.11 1020 10 16 0.00 0.00
12:55 pm 12:55 Sunny 81 27.4 63 17 53 53 SSW 15 24 30.11 1020 10 16 0.00 0.00
1:15 pm 13:15 Sunny 84 29 62 16.8 48 48 SW 14 22 30.10 1019 10 16 0.00 0.00
1:35 pm 13:35 Sunny 86 29.8 62 16.4 44 44 SSW 15 24 30.10 1019 10 16 0.00 0.00
1:55 pm 13:55 Sunny 86 30.2 61 15.9 42 42 SSW 15 24 30.09 1019 10 16 0.00 0.00
2:15 pm 14:15 Sunny 87 30.6 61 15.9 41 41 SW 16 26 30.09 1019 10 16 0.00 0.00
2:35 pm 14:35 Sunny 87 30.8 61 16 41 41 SSW 18 30 30.07 1018 10 16 0.00 0.00
2:55 pm 14:55 Sunny 88 31.1 62 16.5 41 41 SSW 17 28 30.06 1018 10 16 0.00 0.00
3:15 pm 15:15 Sunny 88 31.2 62 16.6 41 41 SW 16 26 30.06 1018 10 16 0.00 0.00
3:35 pm 15:35 Sunny 88 30.9 62 16.4 42 42 SW 16 26 30.05 1018 10 16 0.00 0.00
3:55 pm 15:55 Sunny 88 30.9 62 16.6 42 42 SW 17 28 30.05 1018 10 16 0.00 0.00
4:15 pm 16:15 Sunny 87 30.8 62 16.8 43 43 SW 15 24 30.05 1018 10 16 0.00 0.00
4:35 pm 16:35 Sunny 87 30.5 62 16.9 44 44 SW 23 37 30.04 1017 10 16 0.00 0.00
4:55 pm 16:55 Sunny 87 30.3 62 16.8 44 44 SW 18 30 30.04 1017 10 16 0.00 0.00
5:15 pm 17:15 Sunny 86 30 64 17.7 48 48 SW 17 28 30.04 1017 10 16 0.00 0.00
5:35 pm 17:35 Sunny 85 29.7 64 17.8 49 49 SW 15 24 30.04 1017 10 16 0.00 0.00
5:55 pm 17:55 Sunny 85 29.3 64 17.7 50 50 SW 15 24 30.04 1017 10 16 0.00 0.00
6:15 pm 18:15 Sunny 84 28.9 64 17.5 50 50 SW 16 26 30.04 1017 10 16 0.00 0.00
6:35 pm 18:35 Sunny 83 28.5 64 17.8 52 52 SW 17 28 30.05 1017 10 16 0.00 0.00
6:55 pm 18:55 Sunny 83 28.1 64 17.6 53 53 SW 15 24 30.05 1017 10 16 0.00 0.00
7:15 pm 19:15 Sunny 82 27.5 65 18.3 57 57 SSW 10 17 30.05 1018 10 16 0.00 0.00
7:35 pm 19:35 Sunny 81 27.3 65 18.5 59 59 SW 15 24 30.05 1018 10 16 0.00 0.00
7:55 pm 19:55 Clear 80 26.9 65 18.4 60 60 SW 14 22 30.06 1018 10 16 0.00 0.00
8:15 pm 20:15 Clear 79 26.2 66 18.7 63 63 SW 12 19 30.06 1018 10 16 0.00 0.00
8:35 pm 20:35 Clear 78 25.3 66 19.1 69 69 SW 9 15 30.07 1018 10 16 0.00 0.00
8:55 pm 20:55 Clear 76 24.3 67 19.4 74 74 SW 8 13 30.08 1019 10 16 0.00 0.00
9:15 pm 21:15 Clear 75 23.7 67 19.7 78 78 SW 6 9 30.11 1020 10 16 0.00 0.00
9:35 pm 21:35 Clear 74 23.3 68 19.8 81 81 SW 5 7 30.12 1020 10 16 0.00 0.00
9:55 pm 21:55 Clear 73 22.6 68 19.9 85 85 SW 7 11 30.12 1020 10 16 0.00 0.00
10:15 pm 22:15 Clear 72 22.4 68 20.1 87 87 SW 7 11 30.12 1020 10 16 0.00 0.00
10:35 pm 22:35 Clear 72 22.4 68 20.1 87 87 Calm 30.12 1020 10 16 0.00 0.00
10:55 pm 22:55 Clear 72 22.3 68 20.1 87 87 WSW 3 6 30.13 1020 10 16 0.00 0.00
11:15 pm 23:15 Clear 70 21.1 68 20.2 95 95 SW 5 7 30.13 1020 10 16 0.00 0.00
11:35 pm 23:35 Clear 68 20.1 67 19.5 96 96 SSW 5 7 30.13 1020 10 16 0.00 0.00
11:55 pm 23:55 Clear 69 20.3 68 20.2 99 99 W 5 7 30.14 1021 10 16 0.00 0.00

Powered by AerisWeather